Wind_Speed
9 10 10 10 10 9 9 7 6 5 4 4 4 3 2 2 2 2 2 2 1 1 2 2 3 4 5 6 7 7 7 8 8 9 9 10 10 10 10 10 10 11 11
8 9 10 9 9 9 9 8 7 6 5 5 4 3 3 3 3 3 3 2 2 2 2 3 3 4 5 6 6 7 7 8 8 9 9 10 10 11 12 12 11 11 11
9 8 9 8 9 9 9 9 8 7 7 5 4 4 4 3 3 4 4 3 3 4 4 4 5 5 5 6 6 6 7 8 9 9 10 10 10 11 11 11 11 11 11
9 9 9 9 9 10 9 9 8 8 8 6 6 5 5 4 4 4 5 4 4 5 5 6 6 5 5 6 7 7 8 8 8 9 10 10 11 11 10 10 10 11 12
10 9 9 9 9 9 10 9 8 8 8 7 6 6 6 5 5 5 6 6 6 6 7 7 7 7 7 7 7 8 8 9 9 10 11 11 11 12 12 11 12 13 13
10 10 10 10 10 10 9 9 8 8 8 7 7 7 6 6 6 6 7 8 7 7 7 8 8 8 8 8 8 8 9 10 10 11 11 12 12 12 13 14 14 14 15
10 10 11 10 10 10 9 9 8 8 9 8 8 8 8 8 8 8 9 9 9 9 9 9 9 9 9 9 9 9 10 10 11 12 12 13 13 14 15 15 15 16 16
12 12 11 11 11 10 10 10 9 9 9 9 10 10 10 9 10 10 10 10 10 10 10 10 10 10 10 10 11 11 11 11 12 12 13 14 14 15 16 16 17 17 17
12 12 12 12 12 11 11 11 11 10 10 11 11 11 12 12 12 12 11 11 11 12 12 12 11 11 11 12 12 12 12 13 13 14 14 15 17 17 18 18 18 18 18
14 13 13 13 12 12 12 12 13 13 13 13 13 13 13 13 13 13 13 13 13 13 14 14 13 13 13 13 14 14 14 15 15 15 16 16 17 17 18 19 19 19 19
14 14 13 13 14 14 14 14 14 14 15 15 15 15 14 14 14 14 15 14 14 15 15 14 15 15 15 15 15 16 16 17 17 17 17 17 18 18 18 19 19 20 20
15 15 14 14 15 15 16 16 16 16 17 17 17 17 16 15 15 15 15 15 15 15 15 15 15 15 16 17 17 17 17 17 17 17 17 17 18 19 19 20 20 20 21
16 16 16 16 16 16 17 17 17 18 18 18 17 17 17 16 16 16 15 16 17 16 16 16 17 17 17 18 18 18 19 19 19 19 19 19 20 20 21 21 21 21 22
17 17 17 17 17 17 17 17 17 17 17 17 17 17 17 18 17 17 17 17 17 17 18 18 19 19 19 19 19 20 20 20 20 21 21 21 21 21 21 22 22 23 23
17 17 18 18 17 17 17 17 18 18 18 19 19 19 19 19 19 18 18 18 18 19 20 20 21 21 21 21 22 22 22 22 23 23 23 23 23 23 23 23 24 25 25
18 18 18 18 18 18 18 19 20 21 21 21 21 21 21 21 21 21 21 21 21 22 22 22 23 23 22 23 24 24 24 25 25 25 26 26 25 25 24 24 25 26 26
20 20 19 19 20 21 20 21 22 23 23 24 24 24 23 23 24 24 24 24 24 24 25 24 25 25 25 25 26 26 26 26 27 28 27 27 27 27 27 27 27 27 28
21 22 22 22 22 22 21 21 22 23 23 24 25 25 24 24 24 25 25 25 25 26 26 26 26 26 26 27 27 28 27 27 27 28 28 28 28 29 29 29 29 29 29
22 23 23 23 23 23 22 22 22 23 23 23 24 24 25 25 25 25 26 26 27 27 27 28 28 28 28 28 28 28 28 28 28 28 28 28 29 29 29 29 29 29 30
23 23 24 24 24 23 23 23 23 23 23 23 24 24 24 25 25 25 26 27 27 27 27 28 28 28 28 27 27 28 28 28 28 28 29 29 29 29 29 30 30 30 30
24 24 24 24 24 24 24 24 25 25 24 24 24 24 25 25 25 26 27 28 28 28 28 28 28 28 28 28 28 28 28 28 29 29 29 29 29 30 30 31 31 31 31
24 24 24 24 24 25 25 25 25 25 25 25 25 25 25 26 26 27 27 28 28 28 27 27 27 28 28 28 28 28 28 28 29 29 29 29 30 30 30 31 32 31 31
24 24 24 24 25 25 26 26 26 26 26 26 26 26 26 27 27 27 27 27 27 27 27 27 26 26 27 27 28 28 28 28 29 29 29 29 30 30 31 31 31 31 31
24 24 24 25 25 25 26 26 26 27 26 26 26 27 27 27 28 28 27 27 26 26 27 27 26 26 27 27 27 28 28 29 29 29 29 29 30 30 30 30 30 30 30
24 25 26 26 26 26 26 26 26 27 27 27 27 27 28 28 28 28 28 27 27 27 27 26 26 27 26 26 27 28 28 28 28 29 29 30 30 30 30 30 31 31 31
25 25 26 26 26 26 26 26 26 26 27 27 27 28 29 29 29 29 28 28 28 27 27 27 27 27 27 27 27 27 27 27 28 29 29 30 29 29 29 29 29 30 30
Wind_Direction
357 0 360 0 5 4 6 11 8 8 14 11 359 355 355 358 7 1 338 327 313 292 282 275 271 264 259 256 257 257 251 250 247 243 240 242 245 246 250 251 253 253 254
349 353 358 1 4 2 2 2 0 6 4 357 355 353 346 340 344 344 331 333 325 316 312 301 288 278 272 267 265 260 251 250 249 245 242 245 251 253 253 253 252 255 259
342 345 347 351 356 355 354 356 356 356 351 348 347 343 332 322 315 317 320 326 318 311 309 308 296 289 286 280 272 259 255 252 250 247 246 249 254 257 258 257 254 255 261
332 336 339 339 343 345 343 343 346 349 347 347 342 334 330 325 312 311 309 303 301 306 302 299 293 289 282 277 270 264 260 256 251 248 250 254 257 261 262 261 258 258 262
322 326 329 329 331 334 335 333 334 336 339 341 339 332 331 326 314 311 310 301 292 297 295 290 288 284 277 278 278 269 264 259 257 255 254 257 260 260 260 260 262 263 264
310 315 318 321 323 323 326 325 327 327 326 326 329 323 319 319 319 314 308 300 294 292 293 288 285 285 279 276 274 273 270 265 264 261 262 265 264 262 262 263 264 265 267
306 308 311 314 316 315 317 319 320 319 318 315 314 315 316 312 312 312 310 305 299 296 290 286 283 282 279 277 277 275 274 269 269 266 266 263 264 264 265 266 266 265 266
303 304 304 306 307 309 310 311 312 313 314 313 311 309 310 307 309 310 308 304 301 301 300 293 282 282 280 280 279 277 274 274 272 268 268 267 267 267 267 268 269 269 268
300 300 300 301 301 302 303 304 305 307 308 307 306 305 304 301 301 302 303 300 296 295 298 297 290 282 280 281 282 280 277 277 278 273 271 272 270 270 269 269 270 272 271
295 296 297 297 296 295 296 300 301 301 302 302 301 301 299 296 296 296 296 296 291 288 291 290 291 287 281 281 281 280 278 278 278 277 275 274 274 274 273 272 273 275 276
294 293 292 292 292 292 292 293 294 295 297 298 297 297 299 296 294 292 292 292 290 287 289 288 288 290 291 286 283 281 276 276 276 277 276 276 275 275 275 275 275 276 276
296 295 294 292 289 288 289 291 292 293 294 295 295 295 296 296 294 293 292 291 290 287 287 287 287 286 287 287 286 282 279 277 278 279 279 279 278 276 275 275 275 276 277
297 297 296 294 289 285 286 289 291 291 290 292 293 293 293 294 294 292 292 290 288 287 286 285 285 284 283 283 284 283 281 278 278 278 280 280 280 279 277 276 275 276 277
296 296 295 294 291 288 287 289 292 292 292 293 294 292 290 290 291 290 288 288 289 288 287 285 285 283 281 281 281 280 279 278 279 280 281 281 281 280 278 277 278 278 279
293 294 295 293 293 293 291 289 290 291 292 293 294 294 291 289 288 288 288 288 288 288 287 285 285 284 283 281 278 277 277 276 277 279 280 281 280 280 280 278 277 279 281
289 291 293 294 292 294 292 290 289 291 291 291 291 290 289 287 286 286 288 290 289 288 288 286 285 283 282 281 277 276 275 275 275 277 278 279 279 279 279 279 278 278 280
286 288 289 292 292 292 291 291 291 291 290 289 288 287 286 285 284 284 286 288 289 288 287 286 285 283 281 280 278 277 276 274 274 276 277 277 277 278 278 279 279 279 280
283 286 288 288 290 291 290 292 294 294 292 290 289 285 284 284 285 284 285 287 288 289 287 285 284 283 281 280 280 279 278 277 276 277 277 277 277 277 277 278 279 279 280
281 283 286 288 288 288 289 292 294 295 295 294 291 288 285 285 286 287 288 287 288 287 287 287 286 286 284 283 280 279 278 276 276 277 278 279 278 279 279 279 280 280 280
282 283 285 286 285 285 287 288 291 294 294 293 292 291 289 288 290 291 290 289 289 288 288 288 288 287 285 283 281 280 280 279 278 278 280 280 279 279 279 280 280 280 280
282 284 285 287 286 286 286 288 290 292 292 292 293 293 293 292 291 292 292 291 291 289 287 287 287 286 284 283 283 281 280 281 280 280 279 279 279 278 278 279 280 279 279
282 284 285 286 287 287 287 288 289 290 290 290 291 293 294 294 294 294 294 293 294 292 290 288 286 284 283 284 284 284 282 281 280 280 280 281 281 279 278 278 278 278 278
281 282 284 284 286 286 286 286 286 288 289 290 290 291 292 293 294 294 294 294 294 293 291 290 287 286 285 286 286 285 284 282 281 280 280 280 282 282 279 278 277 277 277
281 281 282 285 287 287 288 288 288 289 288 289 289 290 291 293 294 293 293 293 294 294 293 291 288 288 288 288 288 287 284 283 282 281 279 279 281 282 282 280 279 278 278
282 282 284 286 286 286 288 289 289 289 289 289 289 290 292 293 294 294 293 293 292 293 294 293 290 288 287 287 286 286 285 283 283 283 283 283 283 284 285 283 281 280 280
284 285 286 287 287 288 288 290 291 290 290 289 289 290 292 292 293 293 291 291 291 291 292 293 293 291 289 288 288 288 288 289 287 286 286 285 285 286 287 285 283 282 282
Height
5909 5907 5905 5903 5901 5899 5897 5895 5893 5892 5890 5889 5888 5887 5886 5886 5885 5885 5884 5883 5883 5882 5882 5882 5882 5882 5882 5881 5882 5882 5882 5882 5882 5883 5884 5884 5885 5886 5886 5886 5886 5886 5886
5909 5907 5905 5903 5902 5900 5898 5895 5894 5892 5891 5889 5888 5887 5886 5886 5885 5885 5884 5883 5883 5882 5882 5881 5881 5881 5881 5880 5880 5880 5880 5881 5881 5881 5882 5883 5884 5883 5884 5884 5884 5884 5884
5909 5907 5905 5904 5902 5900 5898 5896 5894 5892 5891 5889 5888 5887 5886 5885 5885 5884 5884 5883 5882 5882 5881 5881 5880 5880 5879 5879 5879 5879 5879 5879 5879 5880 5880 5881 5881 5881 5881 5881 5881 5881 5881
5909 5907 5905 5903 5901 5899 5897 5895 5894 5892 5891 5889 5888 5887 5886 5885 5884 5884 5883 5883 5882 5881 5881 5880 5880 5879 5878 5878 5877 5877 5877 5878 5878 5878 5878 5879 5879 5879 5879 5879 5878 5878 5878
5908 5906 5904 5903 5901 5899 5897 5895 5893 5892 5890 5889 5888 5887 5886 5884 5883 5883 5882 5882 5881 5880 5879 5879 5878 5877 5877 5876 5876 5876 5876 5876 5876 5876 5876 5876 5876 5876 5876 5876 5876 5876 5875
5907 5905 5903 5902 5900 5898 5896 5894 5892 5891 5890 5889 5888 5887 5885 5884 5883 5882 5881 5880 5880 5879 5878 5877 5876 5876 5875 5875 5874 5874 5874 5873 5873 5873 5873 5873 5873 5873 5873 5873 5873 5872 5872
5905 5903 5902 5900 5898 5897 5895 5893 5892 5890 5889 5888 5887 5886 5884 5883 5882 5881 5880 5879 5878 5877 5876 5875 5874 5874 5873 5873 5872 5872 5871 5871 5870 5870 5870 5870 5869 5869 5869 5869 5869 5868 5868
5903 5901 5900 5898 5897 5895 5894 5892 5891 5889 5888 5887 5885 5884 5883 5882 5881 5879 5878 5877 5876 5875 5874 5873 5872 5872 5871 5870 5870 5869 5869 5868 5867 5867 5866 5866 5866 5865 5865 5865 5864 5864 5864
5900 5899 5897 5896 5895 5893 5892 5891 5889 5888 5887 5885 5884 5882 5881 5880 5879 5877 5876 5874 5873 5872 5871 5870 5869 5869 5868 5867 5867 5866 5865 5865 5864 5863 5863 5862 5861 5861 5860 5860 5859 5859 5859
5897 5896 5895 5893 5892 5891 5890 5889 5887 5886 5885 5883 5882 5880 5879 5877 5876 5875 5873 5872 5870 5869 5869 5868 5866 5865 5864 5864 5863 5862 5862 5861 5860 5860 5859 5858 5857 5856 5856 5855 5854 5854 5854
5894 5893 5891 5890 5889 5888 5887 5886 5885 5883 5882 5880 5879 5877 5876 5874 5873 5871 5870 5868 5867 5866 5865 5864 5863 5862 5861 5860 5859 5858 5858 5857 5856 5855 5854 5853 5852 5852 5851 5850 5849 5849 5848
5891 5889 5888 5886 5885 5884 5883 5882 5881 5880 5879 5877 5876 5874 5873 5871 5869 5867 5866 5865 5863 5862 5862 5861 5859 5858 5857 5856 5855 5854 5853 5852 5851 5850 5849 5848 5847 5846 5845 5845 5844 5843 5843
5887 5886 5884 5883 5882 5880 5879 5878 5877 5876 5875 5873 5872 5870 5869 5867 5866 5864 5862 5861 5860 5858 5857 5856 5855 5853 5852 5851 5850 5849 5848 5847 5846 5845 5844 5843 5842 5841 5840 5839 5838 5837 5837
5883 5882 5881 5879 5878 5876 5875 5874 5873 5872 5870 5869 5867 5866 5865 5863 5861 5860 5858 5856 5855 5853 5852 5851 5849 5848 5847 5846 5845 5843 5842 5841 5840 5839 5838 5837 5836 5834 5833 5833 5832 5831 5830
5879 5878 5877 5875 5874 5872 5871 5870 5869 5867 5866 5865 5863 5862 5860 5858 5856 5855 5853 5851 5850 5848 5847 5845 5843 5842 5841 5840 5839 5838 5836 5835 5834 5833 5832 5831 5829 5828 5827 5826 5825 5824 5823
5875 5874 5872 5871 5869 5868 5867 5865 5864 5862 5861 5859 5858 5856 5854 5853 5851 5849 5848 5846 5844 5842 5840 5839 5837 5836 5834 5833 5832 5831 5830 5828 5827 5826 5825 5824 5823 5822 5820 5819 5818 5817 5816
5870 5869 5867 5866 5865 5863 5862 5860 5858 5857 5855 5853 5851 5850 5848 5846 5845 5843 5841 5839 5837 5835 5833 5831 5830 5828 5827 5826 5824 5823 5822 5821 5820 5819 5817 5816 5815 5814 5813 5812 5810 5809 5808
5864 5863 5862 5861 5859 5858 5856 5854 5853 5850 5848 5847 5845 5843 5840 5839 5837 5836 5834 5832 5830 5828 5825 5824 5822 5821 5819 5818 5817 5815 5814 5813 5812 5810 5809 5808 5807 5806 5804 5803 5802 5801 5800
5858 5857 5856 5854 5853 5851 5850 5848 5846 5844 5842 5840 5838 5836 5834 5832 5830 5829 5827 5825 5823 5820 5818 5816 5814 5812 5811 5809 5808 5807 5805 5804 5803 5802 5800 5799 5798 5797 5795 5794 5793 5792 5790
5852 5851 5849 5847 5846 5844 5843 5842 5840 5838 5836 5834 5832 5829 5827 5825 5824 5822 5820 5817 5815 5812 5810 5808 5806 5804 5803 5801 5800 5798 5797 5795 5794 5793 5792 5790 5789 5788 5786 5785 5784 5782 5781
5845 5844 5843 5841 5839 5838 5836 5835 5833 5832 5830 5828 5825 5823 5821 5819 5816 5814 5812 5809 5807 5804 5802 5800 5798 5796 5794 5793 5791 5789 5788 5786 5785 5784 5782 5781 5780 5778 5777 5776 5774 5773 5771
5838 5837 5836 5834 5833 5831 5830 5828 5826 5825 5822 5820 5819 5816 5814 5812 5809 5807 5804 5801 5798 5796 5794 5792 5790 5788 5786 5785 5783 5781 5779 5777 5776 5775 5773 5772 5771 5769 5768 5766 5764 5763 5762
5831 5830 5829 5827 5826 5824 5822 5821 5819 5817 5814 5813 5811 5809 5807 5804 5802 5799 5797 5794 5791 5788 5786 5784 5782 5780 5778 5776 5774 5772 5771 5769 5767 5765 5764 5763 5761 5760 5758 5757 5755 5753 5752
5824 5823 5822 5820 5819 5817 5815 5813 5811 5809 5807 5805 5803 5801 5799 5797 5794 5791 5789 5786 5784 5781 5778 5776 5774 5772 5770 5768 5766 5764 5762 5760 5758 5756 5755 5753 5752 5751 5749 5747 5745 5744 5743
5817 5816 5814 5813 5811 5809 5808 5805 5803 5801 5799 5797 5795 5793 5791 5789 5786 5784 5781 5779 5776 5774 5771 5768 5766 5764 5762 5760 5757 5755 5753 5751 5749 5748 5746 5744 5743 5741 5739 5738 5736 5734 5733
5810 5809 5807 5805 5804 5802 5800 5798 5796 5794 5792 5790 5788 5785 5783 5780 5778 5775 5773 5770 5768 5766 5763 5760 5758 5755 5754 5751 5749 5747 5745 5743 5741 5739 5737 5735 5733 5732 5730 5728 5726 5725 5723